Location: Lafig�re
(44.4503°N, 4.0357°E)
Time: 07:45:04
(UTC+00:00)

Cosmos 1092 Rocket - Pass Details

Date: 30 January 2021
Orbit: 954 x 994 km, 83.0° (Epoch: 08 March)

Event Time Altitude Azimuth Distance (km) Brightness Sun altitude
Rises 17:31:31 0° 184° (S) 3,638 7.3 -7.7°
Reaches altitude 10° 17:34:01 10° 184° (S) 2,691 6.6 -8.1°
Maximum altitude 17:40:11 86° 97° (E) 967 4.0 -9.2°
Drops below altitude 10° 17:46:21 10° 9° (N) 2,694 6.1 -10.2°
Sets 17:48:51 0° 9° (N) 3,643 6.8 -10.7°
